EHI
3 3 3 2 2 1 0 0 0 0 0 0 0 0 0 0 0 0 0 0 0 0 0 0 0 0 0 0 0 0 0 0 0 0 0 0 0 0 0 0 0 0 0
3 3 2 1 1 0 0 0 0 0 0 0 0 0 0 0 0 0 0 0 0 0 0 0 0 0 0 0 0 0 0 0 0 0 0 0 0 0 0 0 0 0 0
2 1 1 0 0 0 0 0 0 0 0 0 0 0 0 0 0 0 0 0 0 0 0 0 0 0 0 0 0 0 0 0 0 0 0 0 0 0 0 0 0 0 0
1 0 0 0 0 0 0 0 0 0 0 0 0 0 0 0 0 0 0 0 0 0 0 0 0 0 0 0 0 0 0 0 0 0 0 0 0 0 0 0 0 0 0
0 0 0 0 0 0 0 0 0 0 0 0 0 0 0 0 0 0 0 0 0 0 0 0 0 0 0 0 0 0 0 0 0 0 0 0 0 0 0 0 0 0 0
0 0 0 0 0 0 0 0 0 0 0 0 0 0 0 0 0 0 0 0 0 0 0 0 0 0 0 0 0 0 0 0 0 0 0 0 0 0 0 0 0 0 0
0 0 0 0 0 0 0 0 0 0 0 0 0 0 0 0 0 0 0 0 0 0 0 0 0 0 0 0 0 0 0 0 0 0 0 0 0 0 0 0 0 0 0
0 0 0 0 0 0 0 0 0 0 0 0 0 0 0 0 0 0 0 0 0 0 0 0 0 0 0 0 0 0 0 0 0 0 0 0 0 0 0 0 0 0 0
0 0 0 0 0 0 0 0 0 0 0 0 0 0 0 0 0 0 0 0 0 0 0 0 0 0 0 0 0 0 0 0 0 0 0 0 0 0 0 0 0 0 0
0 0 0 0 0 0 0 0 0 0 0 0 0 0 0 0 0 0 0 0 0 0 0 0 0 0 0 0 0 0 0 0 0 0 0 0 0 0 0 0 0 0 0
0 0 0 0 0 0 0 0 0 0 0 0 0 0 0 0 0 0 0 0 0 0 0 0 0 0 0 0 0 0 0 0 0 0 0 0 0 0 0 0 0 0 0
0 0 0 0 0 0 0 0 0 0 0 0 0 0 0 0 0 0 0 0 0 0 0 0 0 0 0 0 0 0 0 0 0 0 0 0 0 0 0 0 0 0 0
0 0 0 0 0 0 0 0 0 0 0 0 0 0 0 0 0 0 0 0 0 0 0 0 0 0 0 0 0 0 0 0 0 0 0 0 0 0 0 0 0 0 0
0 0 0 0 0 0 0 0 0 0 0 0 0 0 0 0 0 0 0 0 0 0 0 0 0 0 0 0 0 0 0 0 0 0 0 0 0 0 0 0 0 0 0
0 0 0 0 0 0 0 0 0 0 0 0 0 0 0 0 0 0 0 0 0 0 0 0 0 0 0 0 0 0 0 0 0 0 0 0 0 0 0 0 0 0 0
0 0 0 0 0 0 0 0 0 0 0 0 0 0 0 0 0 0 0 0 0 0 0 0 0 0 0 0 0 0 0 0 0 0 0 0 0 0 0 0 0 0 0
0 0 0 0 0 0 0 0 0 0 0 0 0 0 0 0 0 0 0 0 0 0 0 0 0 0 0 0 0 0 0 0 0 0 0 0 0 0 0 0 0 0 0
0 0 0 0 0 0 0 0 0 0 0 0 0 0 0 0 0 0 0 0 0 0 0 0 0 0 0 0 0 0 0 0 0 0 0 0 0 0 0 0 0 0 0
0 0 0 0 0 0 0 0 0 0 0 0 0 0 0 0 0 0 0 0 0 0 0 0 0 0 0 0 0 0 0 0 0 0 0 0 0 0 0 0 0 0 0
0 0 0 0 0 0 0 0 0 0 0 0 0 0 0 0 0 0 0 0 0 0 0 0 0 0 0 0 0 0 0 0 0 0 0 0 0 0 0 0 0 0 0
0 0 0 0 0 0 0 0 0 0 0 0 0 0 0 0 0 0 0 0 0 0 0 0 0 0 0 0 0 0 0 0 0 0 0 0 0 0 0 0 0 0 0
0 0 0 0 0 0 0 0 0 0 0 0 0 0 0 0 0 0 0 0 0 0 0 0 0 0 0 0 0 0 0 0 0 0 0 0 0 0 0 0 0 0 0
0 0 0 0 0 0 0 0 0 0 0 0 0 0 0 0 0 0 0 0 0 0 0 0 0 0 0 0 0 0 0 0 0 0 0 0 0 0 0 0 0 0 0
0 0 0 0 0 0 0 0 0 0 0 0 0 0 0 0 0 0 0 0 0 0 0 0 0 0 0 0 0 0 0 0 0 0 0 0 0 0 0 0 0 0 0
0 0 0 0 0 0 0 0 0 0 0 0 0 0 0 0 0 0 0 0 0 0 0 0 0 0 0 0 0 0 0 0 0 0 0 0 0 0 0 0 0 0 0
0 0 0 0 0 0 0 0 0 0 0 0 0 0 0 0 0 0 0 0 0 0 0 0 0 0 0 0 0 0 0 0 0 0 0 0 0 0 0 0 0 0 0
Wind_Speed
5 5 5 4 4 5 5 5 5 4 4 5 5 6 6 6 6 6 6 6 7 6 6 7 6 5 4 4 3 3 3 3 4 1 0 1 1 1 0 1 1 2 2
4 5 5 5 5 6 6 5 5 5 5 5 6 6 7 7 6 7 6 6 6 6 6 7 6 6 6 5 4 4 3 3 4 3 1 1 0 1 0 0 0 1 2
4 5 5 5 5 5 5 5 5 6 6 6 7 7 6 6 6 6 6 6 6 6 6 7 6 7 6 5 5 4 3 3 3 4 2 1 1 1 2 2 2 1 1
4 4 4 4 4 4 4 5 5 6 7 7 6 6 6 6 6 6 6 6 6 6 6 6 5 6 5 5 5 4 4 5 4 4 3 2 1 1 2 2 2 2 1
4 4 4 3 4 5 5 5 6 6 6 6 6 7 6 6 5 5 5 6 5 5 5 5 5 7 7 5 4 4 4 4 4 4 3 2 2 2 1 1 1 2 2
4 4 4 4 5 5 5 5 5 6 6 6 6 6 7 5 7 8 5 4 4 4 4 4 5 7 8 8 7 5 5 4 4 3 2 2 1 1 1 1 1 2 2
3 3 4 4 4 4 4 5 5 5 5 5 5 5 6 6 8 8 7 4 4 3 3 3 4 5 6 5 6 7 6 5 4 4 3 1 1 1 0 1 1 0 2
3 3 3 3 4 4 4 4 4 3 4 4 4 4 5 6 9 9 8 6 5 4 4 4 4 4 4 4 5 5 5 4 2 2 2 2 2 2 2 2 1 1 2
3 3 3 3 3 4 4 3 3 3 4 3 3 4 5 5 9 9 7 4 4 4 4 4 3 3 5 7 6 5 5 4 4 2 1 3 4 4 3 1 1 2 1
2 2 3 3 3 4 3 3 2 3 3 4 4 4 4 4 8 9 6 3 4 3 3 3 4 4 5 6 4 3 3 3 4 5 4 4 2 2 3 3 2 2 1
3 3 3 3 3 3 3 2 3 3 4 4 4 3 3 3 5 7 6 3 2 2 2 2 2 4 5 5 3 1 1 2 2 3 2 3 2 2 1 2 3 3 3
3 3 3 2 2 3 3 3 3 3 4 3 3 3 3 3 4 5 7 6 4 3 1 1 2 4 5 5 3 3 3 3 2 2 2 2 2 2 2 3 3 4 5
3 3 2 2 2 3 3 3 2 3 3 2 2 2 2 2 4 7 8 8 7 3 1 3 4 6 5 4 5 5 3 2 2 2 2 2 2 3 3 3 3 2 3
3 2 2 3 3 3 2 2 2 2 2 2 2 2 1 2 3 3 4 4 5 4 4 5 6 6 4 4 4 3 2 1 1 0 1 2 3 2 2 1 1 2 3
3 2 3 3 3 3 3 2 2 1 3 4 3 3 3 1 1 1 1 2 2 3 3 3 4 4 4 3 3 3 2 2 2 1 1 2 3 3 3 2 1 1 1
3 2 2 2 2 2 3 2 4 2 3 4 5 4 2 2 2 1 3 3 4 3 3 3 3 2 2 2 2 2 2 2 2 1 1 1 2 2 2 2 1 1 1
3 2 2 2 2 2 2 2 1 3 3 2 2 3 3 2 1 1 4 5 4 3 2 1 2 2 2 1 1 1 1 2 1 1 1 2 2 2 2 2 2 2 2
3 3 3 2 3 3 3 2 2 2 0 2 2 2 2 2 2 2 3 4 3 3 1 1 1 2 1 1 1 1 1 2 2 2 2 2 2 2 2 3 2 2 2
2 2 2 2 2 3 3 2 2 2 2 2 1 2 3 2 3 3 1 1 0 1 2 2 2 1 1 1 1 1 1 1 2 2 2 2 2 2 2 3 3 4 3
2 3 2 1 1 2 2 2 3 3 3 3 3 3 1 1 1 2 1 1 1 2 2 2 2 1 0 0 0 1 1 1 2 2 2 2 2 2 3 3 3 3 3
1 1 2 1 1 2 2 3 3 3 3 3 4 4 5 3 3 3 3 2 3 3 2 1 1 0 1 1 1 1 2 1 1 1 1 2 2 2 3 3 3 3 3
2 2 1 2 2 2 2 2 2 3 4 4 3 2 6 3 3 3 3 3 3 3 3 2 2 1 2 2 2 2 1 1 0 1 1 2 2 3 3 3 4 4 3
2 2 2 2 2 3 2 1 2 3 3 4 3 3 3 3 4 4 4 4 3 3 3 3 3 2 2 2 2 3 3 2 2 2 1 2 2 3 3 3 4 4 4
2 2 3 3 3 3 3 3 3 3 4 4 4 4 4 4 4 5 4 4 3 3 3 3 3 5 5 3 2 2 2 3 2 2 2 2 3 3 3 3 4 4 4
3 3 3 3 4 4 4 3 3 3 4 4 4 4 4 4 5 5 4 4 4 4 5 4 3 4 6 6 5 4 4 4 3 2 2 2 3 3 3 4 4 4 4
3 3 3 3 3 4 4 4 4 4 4 4 4 4 4 5 5 5 4 4 4 4 4 4 5 6 7 6 6 6 5 5 4 3 2 2 3 3 3 3 4 4 4
Wind_Direction
54 59 61 58 59 64 64 60 62 63 59 64 66 62 58 59 59 66 64 66 68 62 59 64 55 51 54 49 59 69 76 102 122 119 155 152 145 188 267 259 226 218 214
60 66 64 59 60 65 63 57 58 59 56 61 68 67 64 63 62 66 69 65 70 68 63 64 55 58 49 42 53 61 70 86 125 131 76 52 61 198 252 323 322 204 216
70 69 62 57 60 62 61 60 60 62 59 57 63 65 62 63 64 64 69 69 68 67 66 67 60 65 57 48 52 56 60 73 93 118 98 46 28 36 43 16 14 358 260
77 73 64 57 60 62 63 63 62 62 62 60 60 62 61 63 64 64 67 68 66 62 61 63 62 66 67 61 59 56 69 72 75 91 86 54 35 21 61 43 5 343 310
81 76 69 59 60 64 66 62 64 66 69 64 63 57 53 55 51 60 63 69 68 63 55 54 57 64 65 64 72 67 75 78 78 82 76 54 31 30 19 350 18 339 323
83 78 71 65 61 63 63 66 66 63 62 61 59 59 54 50 47 58 70 70 68 69 63 49 50 47 46 49 58 70 91 101 102 95 87 88 43 0 5 19 50 35 325
87 77 73 74 66 60 68 68 67 64 67 66 62 66 60 43 49 60 69 79 74 72 69 60 55 43 38 38 41 45 48 74 120 134 133 170 187 210 130 22 36 196 243
93 86 84 82 74 70 68 66 65 66 72 72 70 70 65 44 45 57 65 69 68 68 73 82 79 43 31 48 54 46 34 28 57 133 173 208 210 200 181 182 205 290 297
102 94 96 95 87 83 77 67 68 73 70 71 78 72 63 34 37 52 65 66 64 55 55 66 78 60 46 62 66 52 32 8 19 26 253 249 247 230 190 119 46 55 2
117 112 105 100 94 93 87 74 67 81 84 82 75 67 69 47 37 48 61 78 73 57 43 39 50 58 50 61 71 64 35 344 345 348 350 344 322 293 211 179 173 153 177
117 102 89 85 102 99 81 72 78 79 76 73 72 58 56 50 38 44 56 80 97 79 50 15 355 23 37 42 63 85 305 312 331 346 349 352 347 332 300 216 198 179 185
107 95 87 78 99 99 85 74 81 92 83 73 74 56 28 21 32 39 52 66 83 89 57 335 323 351 8 11 12 337 350 19 25 24 20 356 338 321 300 279 241 224 219
102 100 92 74 76 91 100 93 79 89 100 96 94 80 27 11 14 32 44 51 55 58 350 334 345 355 1 359 351 354 12 43 38 31 0 309 287 285 297 314 318 299 285
119 115 104 96 76 64 71 91 103 110 117 115 110 104 60 22 9 7 17 24 28 23 360 350 0 5 9 352 349 1 17 37 110 292 288 298 313 331 340 337 329 342 350
113 110 102 97 105 86 70 64 103 134 179 157 159 156 139 112 305 3 54 22 3 351 357 12 15 7 2 358 356 351 359 15 19 349 350 346 345 351 342 341 348 2 356
113 116 128 123 125 118 108 56 31 57 87 129 150 153 156 172 173 53 29 9 1 20 51 26 1 355 350 345 352 350 353 352 338 344 359 354 344 340 335 337 349 347 317
147 155 142 142 149 155 151 141 97 14 31 56 126 154 160 171 173 10 7 6 15 53 56 2 339 330 328 333 354 354 334 325 338 2 6 352 345 341 344 339 339 337 324
160 176 166 174 175 179 182 181 173 162 189 312 302 248 230 240 274 329 12 29 17 23 17 303 294 292 294 310 333 340 338 353 6 6 5 359 0 353 346 338 331 323 314
158 173 181 190 193 191 191 187 191 190 200 233 279 294 272 284 310 318 34 81 295 313 310 295 278 274 275 293 314 338 5 16 14 14 5 0 356 357 342 328 325 328 331
179 202 193 191 201 188 189 191 200 203 211 219 228 236 222 120 305 304 263 215 226 255 271 274 277 261 246 253 49 62 47 28 19 25 6 354 349 351 341 332 328 324 311
207 243 243 211 218 204 194 199 200 199 205 214 228 225 187 184 217 234 240 231 222 230 237 237 243 196 155 135 120 106 97 55 29 23 2 347 347 344 334 331 324 320 315
200 220 221 215 224 225 210 201 189 195 206 211 227 232 203 198 214 222 228 234 231 222 209 187 177 176 173 164 154 144 133 131 324 330 328 330 334 336 335 335 334 329 324
206 232 240 238 222 224 218 212 200 199 205 210 208 204 200 211 221 221 224 229 225 217 203 178 169 175 176 172 165 161 169 196 218 233 274 305 317 323 323 320 321 323 317
227 235 232 233 224 220 221 227 219 210 205 208 213 212 211 215 220 223 222 220 214 211 201 189 186 186 183 182 182 185 193 205 211 227 245 264 289 300 308 312 311 307 306
237 238 238 234 226 220 220 225 225 223 216 211 212 215 218 216 221 227 225 219 213 212 210 200 196 194 193 193 194 202 209 211 214 222 240 252 275 288 296 300 303 308 307
241 245 240 234 228 219 215 221 224 222 221 220 217 214 212 213 220 226 222 214 213 215 213 208 206 201 199 202 204 205 210 220 231 236 232 246 270 287 299 296 303 304 306